When you browse on this site, cookies collect data to enhance your experience and personalize the content and advertising you see.
Visit our Privacy Policy to learn more. By continuing to use the site, you agree to this use of cookies and data.
  • In United Kingdom
  • List of Countries
  • For 7 days
  • Water Temperature
  • Satellite Maps
  • Weather Map
  • Weather Widgets
  • user-avatar
    Login

    Hourly Weather Brikama

    Today, 22 February, Friday

    Time Temperature Precipitation Wind Pressure Humidity
    00:00 +27°C° 0 mm 4 mps 758 mmHg 35%
    01:00 +27°C° 0 mm 4 mps 757 mmHg 34%
    02:00 +26°C° 0 mm 4 mps 757 mmHg 32%
    03:00 +26°C° 0 mm 4 mps 757 mmHg 30%
    04:00 +26°C° 0 mm 4 mps 757 mmHg 28%
    05:00 +25°C° 0 mm 4 mps 757 mmHg 26%
    06:00 +26°C° 0 mm 4 mps 757 mmHg 22%
    07:00 +27°C° 0 mm 5 mps 758 mmHg 19%
    08:00 +28°C° 0 mm 5 mps 758 mmHg 16%
    09:00 +32°C° 0 mm 5 mps 758 mmHg 13%
    10:00 +35°C° 0 mm 5 mps 758 mmHg 11%
    11:00 +39°C° 0 mm 5 mps 758 mmHg 9%
    12:00 +40°C° 0 mm 5 mps 757 mmHg 8%
    13:00 +41°C° 0 mm 4 mps 757 mmHg 8%
    14:00 +43°C° 0 mm 4 mps 756 mmHg 7%
    15:00 +41°C° 0 mm 5 mps 756 mmHg 11%
    16:00 +39°C° 0 mm 5 mps 755 mmHg 15%
    17:00 +38°C° 0 mm 6 mps 755 mmHg 18%
    18:00 +34°C° 0 mm 6 mps 756 mmHg 23%
    19:00 +32°C° 0 mm 7 mps 756 mmHg 29%
    20:00 +29°C° 0 mm 7 mps 757 mmHg 34%
    21:00 +29°C° 0 mm 7 mps 757 mmHg 31%
    22:00 +29°C° 0 mm 6 mps 757 mmHg 29%
    23:00 +29°C° 0 mm 6 mps 757 mmHg 26%

    Tomorrow, 23 February, Saturday

    Time Temperature Precipitation Wind Pressure Humidity
    00:00 +29°C° 0 mm 6 mps 757 mmHg 24%
    01:00 +29°C° 0 mm 6 mps 757 mmHg 23%
    02:00 +29°C° 0 mm 5 mps 756 mmHg 21%
    03:00 +28°C° 0 mm 6 mps 756 mmHg 19%
    04:00 +28°C° 0 mm 6 mps 756 mmHg 18%
    05:00 +28°C° 0 mm 6 mps 756 mmHg 16%
    06:00 +29°C° 0 mm 6 mps 757 mmHg 15%
    07:00 +30°C° 0 mm 6 mps 757 mmHg 13%
    08:00 +30°C° 0 mm 7 mps 758 mmHg 12%
    09:00 +34°C° 0 mm 7 mps 758 mmHg 10%
    10:00 +37°C° 0 mm 8 mps 757 mmHg 9%
    11:00 +40°C° 0 mm 8 mps 757 mmHg 7%
    12:00 +41°C° 0 mm 8 mps 756 mmHg 8%
    13:00 +41°C° 0 mm 7 mps 756 mmHg 8%
    14:00 +43°C° 0 mm 7 mps 755 mmHg 9%
    15:00 +43°C° 0 mm 7 mps 754 mmHg 10%
    16:00 +42°C° 0 mm 6 mps 754 mmHg 11%
    17:00 +41°C° 0 mm 6 mps 754 mmHg 12%
    18:00 +39°C° 0 mm 5 mps 754 mmHg 15%
    19:00 +36°C° 0 mm 5 mps 755 mmHg 19%
    20:00 +34°C° 0 mm 4 mps 755 mmHg 22%
    21:00 +33°C° 0 mm 5 mps 756 mmHg 20%
    22:00 +33°C° 0 mm 5 mps 756 mmHg 17%
    23:00 +33°C° 0 mm 6 mps 756 mmHg 15%

    Day after tomorrow, 24 February, Sunday

    Time Temperature Precipitation Wind Pressure Humidity
    00:00 +32°C° 0 mm 5 mps 756 mmHg 15%
    01:00 +30°C° 0 mm 5 mps 755 mmHg 14%
    02:00 +29°C° 0 mm 5 mps 755 mmHg 14%
    03:00 +28°C° 0 mm 5 mps 755 mmHg 14%
    04:00 +27°C° 0 mm 5 mps 755 mmHg 14%
    05:00 +26°C° 0 mm 5 mps 755 mmHg 13%
    06:00 +27°C° 0 mm 6 mps 756 mmHg 13%
    07:00 +27°C° 0 mm 6 mps 756 mmHg 12%
    08:00 +28°C° 0 mm 7 mps 757 mmHg 11%
    09:00 +30°C° 0 mm 7 mps 757 mmHg 10%
    10:00 +34°C° 0 mm 6 mps 757 mmHg 9%
    11:00 +36°C° 0 mm 6 mps 757 mmHg 7%
    12:00 +37°C° 0 mm 5 mps 756 mmHg 7%
    13:00 +39°C° 0 mm 5 mps 755 mmHg 6%
    14:00 +40°C° 0 mm 4 mps 754 mmHg 6%
    15:00 +38°C° 0 mm 4 mps 753 mmHg 7%
    16:00 +37°C° 0 mm 4 mps 753 mmHg 9%
    17:00 +36°C° 0 mm 5 mps 753 mmHg 10%
    18:00 +33°C° 0 mm 6 mps 753 mmHg 18%
    19:00 +30°C° 0 mm 6 mps 754 mmHg 26%
    20:00 +27°C° 0 mm 7 mps 755 mmHg 34%
    21:00 +27°C° 0 mm 7 mps 755 mmHg 33%
    22:00 +27°C° 0 mm 6 mps 755 mmHg 32%
    23:00 +27°C° 0 mm 6 mps 756 mmHg 32%

    25 February, Monday

    Time Temperature Precipitation Wind Pressure Humidity
    00:00 +26°C° 0 mm 6 mps 755 mmHg 30%
    01:00 +25°C° 0 mm 5 mps 755 mmHg 29%
    02:00 +23°C° 0 mm 4 mps 754 mmHg 27%
    03:00 +23°C° 0 mm 4 mps 754 mmHg 24%
    04:00 +23°C° 0 mm 4 mps 754 mmHg 21%
    05:00 +22°C° 0 mm 4 mps 754 mmHg 18%
    06:00 +23°C° 0 mm 5 mps 755 mmHg 16%
    07:00 +25°C° 0 mm 5 mps 755 mmHg 15%
    08:00 +26°C° 0 mm 6 mps 756 mmHg 13%
    09:00 +29°C° 0 mm 6 mps 756 mmHg 11%
    10:00 +33°C° 0 mm 6 mps 756 mmHg 9%
    11:00 +36°C° 0 mm 6 mps 756 mmHg 7%
    12:00 +37°C° 0 mm 5 mps 755 mmHg 6%
    13:00 +38°C° 0 mm 4 mps 754 mmHg 6%
    14:00 +39°C° 0 mm 3 mps 753 mmHg 6%
    15:00 +38°C° 0 mm 4 mps 753 mmHg 7%
    16:00 +37°C° 0 mm 4 mps 753 mmHg 8%
    17:00 +37°C° 0 mm 5 mps 753 mmHg 9%
    18:00 +34°C° 0 mm 5 mps 753 mmHg 17%
    19:00 +30°C° 0 mm 6 mps 754 mmHg 26%
    20:00 +27°C° 0 mm 6 mps 755 mmHg 34%
    21:00 +27°C° 0 mm 5 mps 755 mmHg 35%
    22:00 +26°C° 0 mm 5 mps 755 mmHg 35%
    23:00 +26°C° 0 mm 4 mps 755 mmHg 36%

    26 February, Tuesday

    Time Temperature Precipitation Wind Pressure Humidity
    00:00 +25°C° 0 mm 4 mps 755 mmHg 36%
    01:00 +25°C° 0 mm 4 mps 754 mmHg 35%
    02:00 +23°C° 0 mm 4 mps 754 mmHg 34%
    03:00 +23°C° 0 mm 4 mps 754 mmHg 31%
    04:00 +23°C° 0 mm 4 mps 754 mmHg 27%
    05:00 +22°C° 0 mm 4 mps 754 mmHg 24%
    06:00 +23°C° 0 mm 5 mps 755 mmHg 20%
    07:00 +25°C° 0 mm 5 mps 755 mmHg 17%
    08:00 +27°C° 0 mm 6 mps 755 mmHg 13%
    09:00 +30°C° 0 mm 6 mps 755 mmHg 11%
    10:00 +34°C° 0 mm 6 mps 755 mmHg 9%
    11:00 +38°C° 0 mm 6 mps 755 mmHg 6%
    12:00 +39°C° 0 mm 5 mps 755 mmHg 6%
    13:00 +40°C° 0 mm 4 mps 754 mmHg 6%
    14:00 +41°C° 0 mm 4 mps 753 mmHg 6%
    15:00 +39°C° 0 mm 3 mps 753 mmHg 8%
    16:00 +38°C° 0 mm 3 mps 753 mmHg 9%
    17:00 +38°C° 0 mm 3 mps 753 mmHg 11%
    18:00 +35°C° 0 mm 3 mps 754 mmHg 20%
    19:00 +30°C° 0 mm 4 mps 754 mmHg 30%
    20:00 +27°C° 0 mm 4 mps 755 mmHg 39%
    21:00 +27°C° 0 mm 4 mps 755 mmHg 39%
    22:00 +27°C° 0 mm 3 mps 756 mmHg 40%
    23:00 +26°C° 0 mm 3 mps 756 mmHg 40%

    27 February, Wednesday

    Time Temperature Precipitation Wind Pressure Humidity
    00:00 +26°C° 0 mm 3 mps 756 mmHg 38%
    01:00 +25°C° 0 mm 3 mps 755 mmHg 35%
    02:00 +25°C° 0 mm 4 mps 755 mmHg 33%
    03:00 +25°C° 0 mm 4 mps 755 mmHg 29%
    04:00 +25°C° 0 mm 4 mps 755 mmHg 25%
    05:00 +23°C° 0 mm 4 mps 755 mmHg 21%
    06:00 +26°C° 0 mm 5 mps 756 mmHg 18%
    07:00 +27°C° 0 mm 5 mps 756 mmHg 15%
    08:00 +28°C° 0 mm 6 mps 757 mmHg 12%
    09:00 +32°C° 0 mm 6 mps 757 mmHg 10%
    10:00 +34°C° 0 mm 6 mps 757 mmHg 8%
    11:00 +38°C° 0 mm 6 mps 756 mmHg 6%
    12:00 +39°C° 0 mm 6 mps 756 mmHg 6%
    13:00 +40°C° 0 mm 5 mps 755 mmHg 6%
    14:00 +42°C° 0 mm 4 mps 754 mmHg 6%
    15:00 +41°C° 0 mm 4 mps 754 mmHg 6%
    16:00 +41°C° 0 mm 4 mps 754 mmHg 7%
    17:00 +40°C° 0 mm 3 mps 754 mmHg 7%
    18:00 +36°C° 0 mm 4 mps 755 mmHg 16%
    19:00 +33°C° 0 mm 4 mps 755 mmHg 25%
    20:00 +28°C° 0 mm 5 mps 756 mmHg 33%
    21:00 +28°C° 0 mm 4 mps 756 mmHg 32%
    22:00 +28°C° 0 mm 4 mps 756 mmHg 30%
    23:00 +28°C° 0 mm 4 mps 756 mmHg 29%
    Show more